Regional Weather Roundup
Issued by NWS

Home | Current Version | Previous Version | Graphics & Text | Print | Product List | Glossary On
Versions: 1 2 3 4 5 6 7 8 9 10 11 12 13 14 15 16 17 18 19 20 21 22 23 24 25 26 27 28 29 30 31 32 33 34 35 36 37 38 39 40 41 42 43 44 45 46 47 48 49 50
000
ASUS43 KLSX 262010
RWRMO

WEATHER SUMMARY FOR MISSOURI
NATIONAL WEATHER SERVICE SPRINGFIELD MO
300 PM CDT MON JUN 26 2017

NOTE: "FAIR" INDICATES FEW OR NO CLOUDS BELOW 12,000 FEET WITH NO
       SIGNIFICANT WEATHER AND/OR OBSTRUCTIONS TO VISIBILITY.
       CURRENT SKY AND/OR WEATHER CONDITIONS ARE NOT AVAILABLE FOR
       CHILLICOTHE AND FARMINGTON.

MOZ001>031-035>038-043-044-053-054-262100-
...NORTHERN AND WESTERN MISSOURI...

CITY           SKY/WX    TMP DP  RH WIND       PRES   REMARKS
KANSAS CTY INT PTSUNNY   66  56  70 S12       30.15F
KANSAS C DTWN  MOSUNNY   70  54  56 SE10G18   30.15F
LEE`S SUMMIT   PTSUNNY   64  54  69 SE14      30.18F
ST JOSEPH      MOSUNNY   67  61  81 S9        30.16F
CHILLICOTHE      N/A     66  56  70 S7        30.16F
KIRKSVILLE     SUNNY     71  53  52 SW9G18    30.17F

$$
MOZ066>068-077>081-088>096-101>105-262100-
...SOUTHWEST MISSOURI...

CITY           SKY/WX    TMP DP  RH WIND       PRES   REMARKS
SPRINGFIELD    CLOUDY    73  61  65 S7        30.15F
JOPLIN         CLOUDY    83  64  52 SW10      30.13F
BRANSON        PTSUNNY   81  61  50 CALM      30.17F

$$
MOZ032>034-039>042-045>050-055>058-069>072-262100-
...CENTRAL MISSOURI...

CITY           SKY/WX    TMP DP  RH WIND       PRES   REMARKS
COLUMBIA       RAIN      60  58  92 S12       30.17F
JEFFERSON CITY HVY RAIN  63  55  75 VRB5      30.19F
ROLLA          CLOUDY    72  56  57 N7        30.17F
SEDALIA        RAIN      59  59 100 CALM      30.22F FOG
WHITEMAN AFB   CLOUDY    59  59 100 E5        30.20F
WARRENSBURG    CLOUDY    59  54  82 SE7       30.18F
OSAGE BEACH    CLOUDY    69  61  75 VRB3      30.19F

$$
MOZ051-052-059>065-262100-
...EAST CENTRAL MISSOURI...

CITY           SKY/WX    TMP DP  RH WIND       PRES   REMARKS
ST LOUIS INTL  LGT RAIN  72  53  51 N12       30.19S
SPIRIT OF STL  CLOUDY    71  54  54 NE7       30.18S
ST CHARLES     MOSUNNY   72  52  49 E7        30.14F

$$
MOZ072>076-082>087-097>100-106>115-262100-
...SOUTH CENTRAL AND SOUTHEAST MISSOURI...

CITY           SKY/WX    TMP DP  RH WIND       PRES   REMARKS
CAPE GIRARDEAU SUNNY     79  50  36 VRB6      30.15F
FARMINGTON     MOSUNNY   78  47  33 CALM      30.16F
POPLAR BLUFF   SUNNY     78  58  49 CALM      30.14F
WEST PLAINS    CLOUDY    75  61  61 SW3       30.17F

$$




USA.gov is the U.S. government's official web portal to all federal, state and local government web resources and services.